| time (UTC) | temp C | wind direction | speed KPH | gust KPH | rain 1hr cm | rain 24hr cm | rain mn cm | humidity % | barometer mb |
| 20260504175041 | 23 | 238 | 6.4 | 19.3 | 0.00 | 0.00 | 0.00 | 29 | 1011.2 |
| 20260504174555 | 23 | 273 | 1.6 | 11.3 | 0.00 | 0.00 | 0.00 | 29 | 1011.3 |
| 20260504174041 | 23 | 300 | 3.2 | 11.3 | 0.00 | 0.00 | 0.00 | 28 | 1011.3 |
| 20260504173542 | 23 | 272 | 4.8 | 12.9 | 0.00 | 0.00 | 0.00 | 29 | 1011.2 |
| 20260504173057 | 23 | 291 | 3.2 | 12.9 | 0.00 | 0.00 | 0.00 | 29 | 1011.2 |
| 20260504172541 | 23 | 248 | 1.6 | 19.3 | 0.00 | 0.00 | 0.00 | 29 | 1011.3 |
| 20260504172040 | 23 | 223 | 3.2 | 19.3 | 0.00 | 0.00 | 0.00 | 30 | 1011.4 |
| 20260504171552 | 23 | 260 | 1.6 | 12.9 | 0.00 | 0.00 | 0.00 | 30 | 1011.3 |
| 20260504171041 | 23 | 301 | 1.6 | 12.9 | 0.00 | 0.00 | 0.00 | 31 | 1011.5 |
| 20260504170540 | 23 | 219 | 4.8 | 12.9 | 0.00 | 0.00 | 0.00 | 29 | 1011.4 |
| 20260504151040 | 21 | 263 | 1.6 | 12.9 | 0.00 | 0.00 | 0.00 | 31 | 1012.9 |
| 20260504150541 | 20 | 235 | 3.2 | 12.9 | 0.00 | 0.00 | 0.00 | 31 | 1013.0 |
| 20260504141040 | 19 | 203 | 1.6 | 8.0 | 0.00 | 0.00 | 0.00 | 35 | 1013.3 |
| 20260504140541 | 18 | 267 | 1.6 | 12.9 | 0.00 | 0.00 | 0.00 | 35 | 1013.5 |
| 20260504130540 | 16 | 0 | 0.0 | 4.8 | 0.00 | 0.00 | 0.00 | 42 | 1014.1 |
| 20260504120124 | 12 | 0 | 0.0 | 8.0 | 0.00 | 0.00 | 0.00 | 53 | 1014.4 |
| 20260504110539 | 8 | 188 | 0.0 | 1.6 | 0.00 | 0.00 | 0.00 | 60 | 1014.4 |
| 20260504100540 | 8 | 0 | 0.0 | 1.6 | 0.00 | 0.00 | 0.00 | 57 | 1014.3 |
| 20260504081604 | 10 | 0 | 0.0 | 1.6 | 0.00 | 0.00 | 0.00 | 51 | 1013.8 |
| 20260504081039 | 10 | 0 | 0.0 | 1.6 | 0.00 | 0.00 | 0.00 | 51 | 1013.8 |
| 20260504080539 | 10 | 215 | 0.0 | 1.6 | 0.00 | 0.00 | 0.00 | 51 | 1013.8 |
| 20260504050540 | 10 | 238 | 0.0 | 3.2 | 0.00 | 0.00 | 0.00 | 51 | 1012.9 |
| 20260504045539 | 10 | 0 | 0.0 | 3.2 | 0.00 | 0.00 | 0.00 | 52 | 1013.0 |
| 20260504045039 | 9 | 256 | 0.0 | 1.6 | 0.00 | 0.00 | 0.00 | 52 | 1012.9 |
| 20260504044550 | 9 | 0 | 0.0 | 1.6 | 0.00 | 0.00 | 0.00 | 52 | 1012.9 |
| 20260504044039 | 9 | 0 | 0.0 | 1.6 | 0.00 | 0.00 | 0.00 | 52 | 1012.8 |
| 20260504043539 | 9 | 0 | 0.0 | 1.6 | 0.00 | 0.00 | 0.00 | 53 | 1012.8 |
| 20260504043107 | 9 | 0 | 0.0 | 1.6 | 0.00 | 0.00 | 0.00 | 52 | 1012.8 |
| 20260504042539 | 9 | 0 | 0.0 | 1.6 | 0.00 | 0.00 | 0.00 | 53 | 1012.7 |
| 20260504042040 | 9 | 0 | 0.0 | 0.0 | 0.00 | 0.00 | 0.00 | 53 | 1012.7 |
| 20260504041551 | 9 | 0 | 0.0 | 0.0 | 0.00 | 0.00 | 0.00 | 52 | 1012.6 |
| 20260504041040 | 9 | 0 | 0.0 | 0.0 | 0.00 | 0.00 | 0.00 | 52 | 1012.6 |
| 20260504040540 | 9 | 0 | 0.0 | 0.0 | 0.00 | 0.00 | 0.00 | 52 | 1012.7 |
| 20260504040051 | 9 | 0 | 0.0 | 0.0 | 0.00 | 0.00 | 0.00 | 51 | 1012.7 |
| 20260504035540 | 10 | 0 | 0.0 | 0.0 | 0.00 | 0.00 | 0.00 | 51 | 1012.6 |
| 20260504035040 | 10 | 0 | 0.0 | 0.0 | 0.00 | 0.00 | 0.00 | 51 | 1012.6 |
| 20260504034547 | 10 | 0 | 0.0 | 0.0 | 0.00 | 0.00 | 0.00 | 50 | 1012.5 |
| 20260504034039 | 10 | 0 | 0.0 | 0.0 | 0.00 | 0.00 | 0.00 | 50 | 1012.5 |
| 20260504033626 | 10 | 0 | 0.0 | 0.0 | 0.00 | 0.00 | 0.00 | 50 | 1012.5 |
| 20260504033052 | 10 | 0 | 0.0 | 0.0 | 0.00 | 0.00 | 0.00 | 50 | 1012.6 |
| 20260504032539 | 10 | 0 | 0.0 | 0.0 | 0.00 | 0.00 | 0.00 | 49 | 1012.6 |
| 20260504032040 | 10 | 0 | 0.0 | 0.0 | 0.00 | 0.00 | 0.00 | 49 | 1012.6 |
| 20260504031558 | 10 | 0 | 0.0 | 0.0 | 0.00 | 0.00 | 0.00 | 49 | 1012.6 |
| 20260504031041 | 10 | 0 | 0.0 | 0.0 | 0.00 | 0.00 | 0.00 | 49 | 1012.7 |
| 20260504030539 | 10 | 0 | 0.0 | 0.0 | 0.00 | 0.00 | 0.00 | 48 | 1012.5 |
| 20260504030104 | 10 | 0 | 0.0 | 0.0 | 0.00 | 0.00 | 0.00 | 49 | 1012.5 |
| 20260504025540 | 10 | 0 | 0.0 | 0.0 | 0.00 | 0.00 | 0.00 | 48 | 1012.5 |
| 20260504025040 | 10 | 0 | 0.0 | 0.0 | 0.00 | 0.00 | 0.00 | 47 | 1012.5 |
| 20260504024550 | 11 | 0 | 0.0 | 0.0 | 0.00 | 0.00 | 0.00 | 47 | 1012.5 |
| 20260504024039 | 11 | 0 | 0.0 | 0.0 | 0.00 | 0.00 | 0.00 | 46 | 1012.5 |
| 20260504023540 | 11 | 0 | 0.0 | 0.0 | 0.00 | 0.00 | 0.00 | 45 | 1012.4 |
| 20260504023045 | 11 | 0 | 0.0 | 0.0 | 0.00 | 0.00 | 0.00 | 45 | 1012.5 |
| 20260504022542 | 11 | 0 | 0.0 | 0.0 | 0.00 | 0.00 | 0.00 | 44 | 1012.4 |
| 20260504022040 | 11 | 0 | 0.0 | 0.0 | 0.00 | 0.00 | 0.00 | 44 | 1012.6 |
| 20260504021548 | 11 | 0 | 0.0 | 0.0 | 0.00 | 0.00 | 0.00 | 44 | 1012.5 |
| 20260504021039 | 11 | 0 | 0.0 | 0.0 | 0.00 | 0.00 | 0.00 | 43 | 1012.7 |
| 20260504020542 | 11 | 0 | 0.0 | 0.0 | 0.00 | 0.00 | 0.00 | 42 | 1012.6 |
| 20260504020043 | 12 | 0 | 0.0 | 0.0 | 0.00 | 0.00 | 0.00 | 42 | 1012.5 |
| 20260504015539 | 12 | 0 | 0.0 | 0.0 | 0.00 | 0.00 | 0.00 | 41 | 1012.5 |
| 20260504015039 | 12 | 0 | 0.0 | 0.0 | 0.00 | 0.00 | 0.00 | 41 | 1012.5 |
| 20260504014541 | 12 | 0 | 0.0 | 0.0 | 0.00 | 0.00 | 0.00 | 41 | 1012.4 |
| 20260504014039 | 12 | 0 | 0.0 | 0.0 | 0.00 | 0.00 | 0.00 | 40 | 1012.3 |
| 20260504013543 | 12 | 0 | 0.0 | 1.6 | 0.00 | 0.00 | 0.00 | 39 | 1012.3 |
| 20260504013052 | 12 | 0 | 0.0 | 1.6 | 0.00 | 0.00 | 0.00 | 39 | 1012.2 |
| 20260504012540 | 12 | 0 | 0.0 | 0.0 | 0.00 | 0.00 | 0.00 | 39 | 1012.2 |
| 20260504012039 | 13 | 0 | 0.0 | 0.0 | 0.00 | 0.00 | 0.00 | 38 | 1012.2 |
| 20260504011544 | 13 | 0 | 0.0 | 0.0 | 0.00 | 0.00 | 0.00 | 38 | 1012.2 |
| 20260504011042 | 13 | 0 | 0.0 | 0.0 | 0.00 | 0.00 | 0.00 | 37 | 1012.1 |
| 20260504010539 | 13 | 0 | 0.0 | 0.0 | 0.00 | 0.00 | 0.00 | 36 | 1012.0 |
| 20260504010054 | 13 | 0 | 0.0 | 0.0 | 0.00 | 0.00 | 0.00 | 34 | 1011.9 |
| 20260504005540 | 13 | 0 | 0.0 | 0.0 | 0.00 | 0.00 | 0.00 | 34 | 1011.8 |
| 20260504005040 | 13 | 0 | 0.0 | 0.0 | 0.00 | 0.00 | 0.00 | 34 | 1011.7 |
| 20260504004549 | 13 | 0 | 0.0 | 0.0 | 0.00 | 0.00 | 0.00 | 34 | 1011.7 |
| 20260504004040 | 14 | 0 | 0.0 | 0.0 | 0.00 | 0.00 | 0.00 | 34 | 1011.7 |
| 20260504003541 | 14 | 0 | 0.0 | 0.0 | 0.00 | 0.00 | 0.00 | 34 | 1011.7 |
| 20260504003047 | 14 | 0 | 0.0 | 1.6 | 0.00 | 0.00 | 0.00 | 33 | 1011.7 |
| 20260504002539 | 14 | 0 | 0.0 | 1.6 | 0.00 | 0.00 | 0.00 | 33 | 1011.6 |
| 20260504002044 | 14 | 0 | 0.0 | 1.6 | 0.00 | 0.00 | 0.00 | 32 | 1011.4 |
| 20260504001558 | 14 | 0 | 0.0 | 1.6 | 0.00 | 0.00 | 0.00 | 32 | 1011.4 |
| 20260504001039 | 15 | 0 | 0.0 | 1.6 | 0.00 | 0.00 | 0.00 | 32 | 1011.3 |
| 20260504000538 | 15 | 0 | 0.0 | 1.6 | 0.00 | 0.00 | 0.00 | 31 | 1011.3 |
| 20260504000043 | 15 | 0 | 0.0 | 1.6 | 0.00 | 0.00 | 0.00 | 31 | 1011.2 |
| 20260503235539 | 15 | 0 | 0.0 | 3.2 | 0.00 | 0.00 | 0.00 | 31 | 1011.1 |
| 20260503235039 | 15 | 0 | 0.0 | 3.2 | 0.00 | 0.00 | 0.00 | 31 | 1011.2 |
| 20260503234550 | 15 | 307 | 0.0 | 3.2 | 0.00 | 0.00 | 0.00 | 30 | 1011.1 |
| 20260503234041 | 15 | 0 | 0.0 | 1.6 | 0.00 | 0.00 | 0.00 | 30 | 1011.0 |
| 20260503233539 | 15 | 0 | 0.0 | 3.2 | 0.00 | 0.00 | 0.00 | 30 | 1011.0 |
| 20260503233054 | 15 | 0 | 0.0 | 4.8 | 0.00 | 0.00 | 0.00 | 29 | 1010.8 |
| 20260503232539 | 15 | 0 | 0.0 | 4.8 | 0.00 | 0.00 | 0.00 | 29 | 1010.8 |
| 20260503232040 | 15 | 315 | 1.6 | 6.4 | 0.00 | 0.00 | 0.00 | 28 | 1010.8 |
| 20260503231545 | 15 | 316 | 1.6 | 6.4 | 0.00 | 0.00 | 0.00 | 28 | 1010.8 |
| 20260503231041 | 15 | 292 | 1.6 | 11.3 | 0.00 | 0.00 | 0.00 | 29 | 1010.8 |
| 20260503230539 | 15 | 281 | 3.2 | 11.3 | 0.00 | 0.00 | 0.00 | 28 | 1010.8 |
| 20260503230100 | 15 | 271 | 3.2 | 16.1 | 0.00 | 0.00 | 0.00 | 28 | 1010.7 |
| 20260503225540 | 15 | 313 | 3.2 | 16.1 | 0.00 | 0.00 | 0.00 | 28 | 1010.6 |
| 20260503225039 | 15 | 277 | 3.2 | 9.7 | 0.00 | 0.00 | 0.00 | 28 | 1010.6 |
| 20260503224548 | 15 | 269 | 1.6 | 9.7 | 0.00 | 0.00 | 0.00 | 27 | 1010.5 |
| 20260503224041 | 15 | 315 | 1.6 | 8.0 | 0.00 | 0.00 | 0.00 | 27 | 1010.5 |
| 20260503223540 | 15 | 317 | 1.6 | 8.0 | 0.00 | 0.00 | 0.00 | 27 | 1010.5 |
| 20260503223106 | 15 | 285 | 1.6 | 8.0 | 0.00 | 0.00 | 0.00 | 27 | 1010.5 |
| 20260503222541 | 15 | 300 | 3.2 | 8.0 | 0.00 | 0.00 | 0.00 | 27 | 1010.6 |
| 20260503222039 | 15 | 322 | 1.6 | 6.4 | 0.00 | 0.00 | 0.00 | 27 | 1010.6 |
| 20260503221552 | 15 | 270 | 1.6 | 6.4 | 0.00 | 0.00 | 0.00 | 27 | 1010.5 |
| 20260503221039 | 15 | 340 | 1.6 | 6.4 | 0.00 | 0.00 | 0.00 | 27 | 1010.4 |
| 20260503220539 | 15 | 324 | 3.2 | 8.0 | 0.00 | 0.00 | 0.00 | 27 | 1010.4 |
| 20260503220047 | 15 | 318 | 3.2 | 8.0 | 0.00 | 0.00 | 0.00 | 27 | 1010.5 |
| 20260503215540 | 15 | 299 | 1.6 | 6.4 | 0.00 | 0.00 | 0.00 | 27 | 1010.6 |
| 20260503215040 | 15 | 272 | 1.6 | 12.9 | 0.00 | 0.00 | 0.00 | 27 | 1010.6 |
| 20260503214555 | 15 | 315 | 3.2 | 12.9 | 0.00 | 0.00 | 0.00 | 27 | 1010.5 |
| 20260503214040 | 15 | 320 | 3.2 | 11.3 | 0.00 | 0.00 | 0.00 | 27 | 1010.7 |
| 20260503213540 | 15 | 288 | 4.8 | 12.9 | 0.00 | 0.00 | 0.00 | 27 | 1010.5 |
| 20260503213051 | 15 | 314 | 3.2 | 12.9 | 0.00 | 0.00 | 0.00 | 27 | 1010.4 |
| 20260503212539 | 15 | 321 | 3.2 | 12.9 | 0.00 | 0.00 | 0.00 | 27 | 1010.4 |
| 20260503212039 | 15 | 331 | 3.2 | 14.5 | 0.00 | 0.00 | 0.00 | 27 | 1010.4 |
| 20260503211551 | 15 | 325 | 3.2 | 14.5 | 0.00 | 0.00 | 0.00 | 27 | 1010.4 |
| 20260503211039 | 15 | 260 | 4.8 | 12.9 | 0.00 | 0.00 | 0.00 | 27 | 1010.3 |
| 20260503210539 | 15 | 310 | 3.2 | 8.0 | 0.00 | 0.00 | 0.00 | 27 | 1010.3 |
| 20260503210047 | 15 | 319 | 3.2 | 14.5 | 0.00 | 0.00 | 0.00 | 28 | 1010.2 |
| 20260503205539 | 15 | 315 | 3.2 | 14.5 | 0.00 | 0.00 | 0.00 | 28 | 1010.2 |
| 20260503205039 | 15 | 321 | 3.2 | 14.5 | 0.00 | 0.00 | 0.00 | 28 | 1010.3 |
| 20260503204546 | 15 | 290 | 4.8 | 12.9 | 0.00 | 0.00 | 0.00 | 29 | 1010.4 |
| 20260503204039 | 15 | 327 | 1.6 | 6.4 | 0.00 | 0.00 | 0.00 | 29 | 1010.3 |
| 20260503203540 | 15 | 317 | 1.6 | 6.4 | 0.00 | 0.00 | 0.00 | 30 | 1010.2 |
| 20260503203051 | 15 | 261 | 1.6 | 8.0 | 0.00 | 0.00 | 0.00 | 31 | 1010.3 |
| 20260503202541 | 15 | 306 | 3.2 | 8.0 | 0.00 | 0.00 | 0.00 | 30 | 1010.2 |
| 20260503202040 | 14 | 326 | 3.2 | 9.7 | 0.00 | 0.00 | 0.00 | 30 | 1010.4 |
| 20260503201553 | 14 | 309 | 3.2 | 12.9 | 0.00 | 0.00 | 0.00 | 30 | 1010.3 |
| 20260503201041 | 14 | 321 | 4.8 | 12.9 | 0.00 | 0.00 | 0.00 | 29 | 1010.4 |
| 20260503200539 | 14 | 330 | 4.8 | 12.9 | 0.00 | 0.00 | 0.00 | 29 | 1010.5 |
| 20260503200055 | 14 | 271 | 3.2 | 12.9 | 0.00 | 0.00 | 0.00 | 30 | 1010.6 |
| 20260503195536 | 14 | 329 | 4.8 | 14.5 | 0.00 | 0.00 | 0.00 | 30 | 1010.6 |
| 20260503195039 | 14 | 329 | 4.8 | 14.5 | 0.00 | 0.00 | 0.00 | 29 | 1010.6 |
| 20260503194616 | 14 | 309 | 4.8 | 16.1 | 0.00 | 0.00 | 0.00 | 30 | 1010.6 |
| 20260503194041 | 14 | 345 | 4.8 | 16.1 | 0.00 | 0.00 | 0.00 | 29 | 1010.8 |
| 20260503193539 | 14 | 340 | 6.4 | 16.1 | 0.00 | 0.00 | 0.00 | 30 | 1010.9 |
| 20260503193050 | 14 | 301 | 4.8 | 12.9 | 0.00 | 0.00 | 0.00 | 31 | 1010.9 |
| 20260503192539 | 14 | 294 | 3.2 | 12.9 | 0.00 | 0.00 | 0.00 | 31 | 1011.0 |
| 20260503192039 | 14 | 275 | 3.2 | 12.9 | 0.00 | 0.00 | 0.00 | 31 | 1011.0 |
| 20260503191557 | 14 | 265 | 4.8 | 12.9 | 0.00 | 0.00 | 0.00 | 32 | 1011.2 |
| 20260503191040 | 14 | 309 | 1.6 | 14.5 | 0.00 | 0.00 | 0.00 | 32 | 1011.2 |
| 20260503190627 | 14 | 318 | 4.8 | 14.5 | 0.00 | 0.00 | 0.00 | 32 | 1011.1 |
| 20260503190051 | 14 | 303 | 3.2 | 12.9 | 0.00 | 0.00 | 0.00 | 32 | 1011.2 |
| 20260503185541 | 14 | 288 | 4.8 | 12.9 | 0.00 | 0.00 | 0.00 | 31 | 1011.2 |
| 20260503185040 | 14 | 292 | 4.8 | 12.9 | 0.00 | 0.00 | 0.00 | 33 | 1011.3 |
| 20260503184550 | 14 | 293 | 3.2 | 9.7 | 0.00 | 0.00 | 0.00 | 34 | 1011.4 |
| 20260503184040 | 13 | 273 | 3.2 | 9.7 | 0.00 | 0.00 | 0.00 | 33 | 1011.3 |
| 20260503183539 | 13 | 294 | 1.6 | 9.7 | 0.00 | 0.00 | 0.00 | 33 | 1011.6 |
| 20260503183055 | 13 | 300 | 1.6 | 8.0 | 0.00 | 0.00 | 0.00 | 33 | 1011.4 |
| 20260503182539 | 13 | 266 | 3.2 | 11.3 | 0.00 | 0.00 | 0.00 | 34 | 1011.5 |
| 20260503182039 | 13 | 273 | 4.8 | 11.3 | 0.00 | 0.00 | 0.00 | 34 | 1011.4 |
| 20260503181607 | 13 | 336 | 3.2 | 11.3 | 0.00 | 0.00 | 0.00 | 35 | 1011.5 |
| 20260503181042 | 13 | 27 | 3.2 | 11.3 | 0.00 | 0.00 | 0.00 | 33 | 1011.6 |
| 20260503180540 | 13 | 315 | 3.2 | 16.1 | 0.00 | 0.00 | 0.00 | 35 | 1011.6 |
| 20260503180054 | 13 | 309 | 3.2 | 16.1 | 0.00 | 0.00 | 0.00 | 35 | 1011.5 |
| 20260503175540 | 13 | 329 | 4.8 | 16.1 | 0.00 | 0.00 | 0.00 | 34 | 1011.6 |